Location: Azul
(36.7830°S, 59.8500°W)
Time: 20:29:54
(UTC-03:00)

ISS - Pass Details

Date: 14 July 2019
Orbit: 409 x 418 km, 51.6° (Epoch: 23 July)

Event Time Altitude Azimuth Distance (km) Brightness Sun altitude
Rises 19:14:28 0° 250° (WSW) 2,388 1.0 -14.5°
Reaches altitude 10° 19:17:31 10° 280° (W) 1,514 0.5 -15.1°
Maximum altitude 19:19:05 13° 307° (NW) 1,356 -0.1 -15.4°
Drops below altitude 10° 19:20:38 10° 335° (NNW) 1,504 -0.4 -15.7°
Sets 19:23:39 0° 4° (N) 2,356 0.2 -16.3°
